This demonstration page uses our WeatherBlox Daily Observations layout. Learn more.

Left ArrowRight Arrow

39.92423, -83.80882

Hourly Observations for February 21, 2019

Temp ( °F °C ) Dew Point ( °F °C ) Humidity (%) Winds ( mph kmh ) Pressure ( in mb ) Visibility ( mi km ) Precip ( " mm )
12:56 am 00:56 Cloudy 38 3.3 35 1.7 89 89 WNW 16 26 30 1016 10 16.0934 N/A
1:56 am 01:56 Cloudy 36 2.2 32 undefined 86 86 W 20 31 30.04 1017 10 16.0934 N/A
2:56 am 02:56 Cloudy 35 1.7 32 undefined 89 89 W 12 19 30.06 1018 10 16.0934 N/A
3:56 am 03:56 Cloudy 35 1.7 31 -0.6 85 85 W 14 22 30.07 1018 10 16.0934 N/A
4:56 am 04:56 Cloudy 34 1.1 30 -1.1 85 85 W 14 22 30.09 1019 10 16.0934 N/A
5:56 am 05:56 Cloudy 34 1.1 29 -1.7 82 82 W 17 28 30.11 1020 10 16.0934 N/A
6:48 am 06:48 Partly Cloudy 34 1 28 -2 81 81 W 8 13 30.13 1020 10 16.0934 N/A
6:56 am 06:56 Mostly Clear 33 0.6 29 -1.7 85 85 WSW 8 13 30.12 1020 10 16.0934 N/A
7:56 am 07:56 Sunny 33 0.6 29 -1.7 85 85 WSW 7 11 30.16 1021 10 16.0934 N/A
8:56 am 08:56 Sunny 34 1.1 30 -1.1 85 85 WSW 12 19 30.2 1023 10 16.0934 N/A
9:56 am 09:56 Sunny 36 2.2 30 -1.1 79 79 W 14 22 30.21 1023 10 16.0934 N/A
10:56 am 10:56 Sunny 38 3.3 30 -1.1 73 73 W 13 20 30.22 1024 10 16.0934 N/A
11:56 am 11:56 Sunny 39 3.9 29 -1.7 67 67 W 9 15 30.23 1024 10 16.0934 N/A
12:56 pm 12:56 Sunny 40 4.4 28 -2.2 63 63 NW 10 17 30.23 1024 10 16.0934 N/A
1:56 pm 13:56 Sunny 40 4.4 27 -2.8 60 60 NW 8 13 30.22 1023 10 16.0934 N/A
2:56 pm 14:56 Sunny 41 5 28 -2.2 60 60 WNW 7 11 30.21 1023 10 16.0934 N/A
3:56 pm 15:56 Sunny 41 5 26 -3.3 55 55 WNW 9 15 30.24 1024 10 16.0934 N/A
4:56 pm 16:56 Sunny 40 4.4 29 -1.7 65 65 W 7 11 30.24 1024 10 16.0934 N/A
5:56 pm 17:56 Sunny 38 3.3 31 -0.6 76 76 WSW 3 6 30.25 1024 10 16.0934 N/A
6:56 pm 18:56 Clear 37 2.8 29 -1.7 73 73 NW 5 7 30.27 1025 10 16.0934 N/A
7:56 pm 19:56 Clear 36 2.2 29 -1.7 76 76 NW 5 7 30.28 1025 10 16.0934 N/A
8:56 pm 20:56 Clear 35 1.7 30 -1.1 82 82 N N/A 30.3 1026 10 16.0934 N/A
9:56 pm 21:56 Clear 34 1.1 30 -1.1 85 85 WNW 3 6 30.34 1027 10 16.0934 N/A
10:56 pm 22:56 Clear 35 1.7 29 -1.7 78 78 NW 7 11 30.32 1027 10 16.0934 N/A
11:56 pm 23:56 Clear 34 1.1 30 -1.1 85 85 N N/A 30.32 1027 10 16.0934 N/A

Powered by AerisWeather